This is the latest recevied weather packets stored in our database for station/object SV1JSO-13. If no packets are shown the sender has not sent any weather packets the latest 10 day(s).
| Time | Temp. | Humidity | Pressure | Rain* | Wind** | Luminosity | Snow |
|---|---|---|---|---|---|---|---|
| 1788054900 | 26.67° C | 38% | 1009.1 hPa | 0 mm | - | 0 W/m² | - |
| 1788054600 | 26.67° C | 37% | 1009.2 hPa | 0 mm | - | 0 W/m² | - |
| 1788054300 | 27.22° C | 37% | 1009.2 hPa | 0 mm | - | 0 W/m² | - |
| 1788054000 | 27.22° C | 37% | 1009.3 hPa | 0 mm | - | 0 W/m² | - |
| 1788053700 | 27.22° C | 37% | 1009.4 hPa | 0 mm | - | 0 W/m² | - |
| 1788053405 | 27.22° C | 37% | 1009.4 hPa | 0 mm | - | 0 W/m² | - |
| 1788053100 | 27.22° C | 36% | 1009.6 hPa | 0 mm | - | 0 W/m² | - |
| 1788052800 | 27.22° C | 36% | 1009.7 hPa | 0 mm | - | 0 W/m² | - |
| 1788052500 | 27.22° C | 35% | 1009.7 hPa | 0 mm | - | 0 W/m² | - |
| 1788052200 | 27.22° C | 34% | 1009.6 hPa | 0 mm | - | 0 W/m² | - |
| 1788051900 | 26.67° C | 36% | 1009.6 hPa | 0 mm | - | 0 W/m² | - |
| 1788051600 | 26.11° C | 37% | 1009.8 hPa | 0 mm | - | 0 W/m² | - |
| 1788051300 | 26.11° C | 38% | 1009.8 hPa | 0 mm | - | 0 W/m² | - |
| 1788051000 | 26.67° C | 38% | 1009.7 hPa | 0 mm | - | 0 W/m² | - |
| 1788050700 | 26.67° C | 36% | 1009.7 hPa | 0 mm | - | 0 W/m² | - |
| 1788050400 | 26.11° C | 39% | 1009.7 hPa | 0 mm | - | 0 W/m² | - |
| 1788050100 | 26.11° C | 39% | 1009.8 hPa | 0 mm | - | 0 W/m² | - |
| 1788049800 | 26.11° C | 38% | 1009.7 hPa | 0 mm | - | 0 W/m² | - |
| 1788049500 | 26.11° C | 37% | 1009.7 hPa | 0 mm | - | 0 W/m² | - |
| 1788049200 | 26.11° C | 35% | 1009.7 hPa | 0 mm | - | 0 W/m² | - |
| 1788048900 | 26.67° C | 35% | 1009.7 hPa | 0 mm | - | 0 W/m² | - |
| 1788048600 | 26.67° C | 34% | 1009.7 hPa | 0 mm | - | 0 W/m² | - |
| 1788048300 | 26.67° C | 34% | 1009.7 hPa | 0 mm | - | 0 W/m² | - |
| 1788048000 | 26.67° C | 34% | 1009.7 hPa | 0 mm | - | 0 W/m² | - |
| 1788047700 | 26.67° C | 36% | 1009.6 hPa | 0 mm | - | 0 W/m² | - |
* Rain latest hour (hover to see other rain measurements)
** Current wind speed in m/s (hover to see current wind gust speed)